Powrót do katalogu

FENGYUN 1C DEB

AktywnySSO
NORAD 31031·DEBRIS·🇨🇳 China

Wystrzelony May 10, 1999 z Taiyuan Satellite Launch Center

Loading…

Następne Przeloty (najbliższe 24 godziny)

TLE

ŚwieżeSource: Space-Track

Epoka: Sep 14, 2026, 06:36 UTC

1 31031U 99025BDZ 26257.27535758  .00000499  00000-0  24866-3 0  9998
2 31031  99.0750 186.8861 0028775 118.9723  34.4682 14.21425330  7636

Śledź FENGYUN 1C DEB w czasie rzeczywistym z AllMySat

Download on the App Store